FW8739 Weather Reports


time (UTC)temp
C
wind
direction
speed
KPH
gust
KPH
rain 1hr
cm
rain 24hr
cm
rain mn
cm
humidity
%
barometer
mb
20260510190600 23 168 1.6 1.6 0.00 0.00 0.00 40 1020.1
20260510190057 24 152 1.6 1.6 0.00 0.00 0.00 50 1020.2
20260510185554 23 177 0.0 0.0 0.00 0.00 0.00 47 1019.9
20260510185051 23 173 0.0 0.0 0.00 0.00 0.00 48 1019.9
20260510184548 22 73 0.0 1.6 0.00 0.00 0.00 48 1019.8
20260510184044 23 152 1.6 3.2 0.00 0.00 0.00 45 1020.1
20260510183539 22 18 0.0 1.6 0.00 0.00 0.00 45 1020.1
20260510183034 23 160 3.2 3.2 0.00 0.00 0.00 42 1020.0
20260510182532 24 151 1.6 1.6 0.00 0.00 0.00 48 1020.2
20260510182027 23 187 1.6 1.6 0.00 0.00 0.00 46 1019.9
20260510181525 24 148 1.6 3.2 0.00 0.00 0.00 48 1019.9
20260510181021 23 5 0.0 1.6 0.00 0.00 0.00 46 1019.8
20260510180518 23 132 1.6 1.6 0.00 0.00 0.00 44 1019.9
20260510180016 23 164 0.0 1.6 0.00 0.00 0.00 41 1019.6
20260510175510 23 24 3.2 3.2 0.00 0.00 0.00 47 1019.9
20260510175007 23 155 1.6 3.2 0.00 0.00 0.00 45 1019.8
20260510174505 23 184 1.6 3.2 0.00 0.00 0.00 52 1020.0
20260510174001 22 245 4.8 8.0 0.00 0.00 0.00 47 1020.1
20260510173457 22 76 1.6 3.2 0.00 0.00 0.00 45 1020.0
20260510172954 23 234 1.6 4.8 0.00 0.00 0.00 45 1020.1
20260510172449 23 134 0.0 0.0 0.00 0.00 0.00 49 1019.9
20260510171946 23 123 0.0 0.0 0.00 0.00 0.00 48 1020.0
20260510171443 23 192 0.0 0.0 0.00 0.00 0.00 54 1019.9
20260510170939 22 173 0.0 0.0 0.00 0.00 0.00 54 1020.0
20260510170436 22 194 1.6 1.6 0.00 0.00 0.00 55 1020.0
20260510165932 22 133 0.0 0.0 0.00 0.00 0.00 55 1019.8
20260510165428 22 283 3.2 4.8 0.00 0.00 0.00 54 1020.1
20260510164925 21 157 0.0 0.0 0.00 0.00 0.00 56 1019.8
20260510164422 22 155 0.0 0.0 0.00 0.00 0.00 52 1020.0
20260510163917 22 183 0.0 0.0 0.00 0.00 0.00 57 1019.8
20260510163413 21 180 1.6 3.2 0.00 0.00 0.00 49 1019.8
20260510162908 22 221 4.8 8.0 0.00 0.00 0.00 50 1019.6
20260510162406 22 169 0.0 0.0 0.00 0.00 0.00 53 1019.9
20260510161901 22 170 0.0 0.0 0.00 0.00 0.00 55 1019.7
20260510161357 21 156 1.6 1.6 0.00 0.00 0.00 55 1019.9
20260510160854 21 110 1.6 4.8 0.00 0.00 0.00 54 1020.1
20260510160351 21 177 0.0 0.0 0.00 0.00 0.00 55 1019.7
20260510155849 20 161 3.2 3.2 0.00 0.00 0.00 53 1020.0
20260510155347 20 180 0.0 0.0 0.00 0.00 0.00 55 1020.0
20260510154843 21 14 4.8 4.8 0.00 0.00 0.00 54 1020.0
20260510154339 20 130 1.6 1.6 0.00 0.00 0.00 59 1020.0
20260510153833 21 139 3.2 3.2 0.00 0.00 0.00 62 1020.1
20260510153330 21 145 1.6 1.6 0.00 0.00 0.00 62 1019.7
20260510152827 21 170 0.0 0.0 0.00 0.00 0.00 62 1019.7
20260510152324 21 190 0.0 0.0 0.00 0.00 0.00 66 1019.8
20260510151820 20 108 1.6 3.2 0.00 0.00 0.00 62 1019.7
20260510151318 20 142 1.6 1.6 0.00 0.00 0.00 63 1019.4
20260510150814 20 186 3.2 3.2 0.00 0.00 0.00 71 1019.6
20260510150309 20 189 1.6 1.6 0.00 0.00 0.00 67 1019.5
20260510145806 20 295 3.2 3.2 0.00 0.00 0.00 67 1019.6
20260510145305 20 161 0.0 0.0 0.00 0.00 0.00 68 1019.5
20260510144759 20 291 4.8 4.8 0.00 0.00 0.00 67 1019.5
20260510144256 19 189 0.0 0.0 0.00 0.00 0.00 74 1019.5
20260510143756 19 130 1.6 1.6 0.00 0.00 0.00 70 1019.6
20260510143252 19 177 0.0 0.0 0.00 0.00 0.00 70 1019.3
20260510142749 20 185 1.6 3.2 0.00 0.00 0.00 73 1019.3
20260510142245 19 289 1.6 3.2 0.00 0.00 0.00 76 1019.4
20260510141742 18 161 3.2 3.2 0.00 0.00 0.00 71 1019.1
20260510141240 19 149 0.0 0.0 0.00 0.00 0.00 73 1019.1
20260510140737 18 178 0.0 0.0 0.00 0.00 0.00 77 1019.0
20260510140232 18 164 4.8 4.8 0.00 0.00 0.00 71 1019.3
20260510135726 18 181 1.6 1.6 0.00 0.00 0.00 78 1018.9
20260510135222 17 198 0.0 0.0 0.00 0.00 0.00 80 1018.8
20260510134720 17 192 1.6 3.2 0.00 0.00 0.00 81 1018.5
20260510134217 16 142 0.0 0.0 0.00 0.00 0.00 82 1018.6
20260510133712 16 115 4.8 4.8 0.00 0.00 0.00 84 1018.4
20260510133208 15 166 0.0 0.0 0.00 0.00 0.00 91 1018.4
20260510132659 15 162 0.0 0.0 0.00 0.00 0.00 99 1018.3
20260510132156 15 199 0.0 0.0 0.00 0.00 0.00 99 1018.4
20260510131654 14 173 0.0 0.0 0.00 0.00 0.00 99 1018.2
20260510131151 13 188 0.0 0.0 0.00 0.00 0.00 99 1018.3
20260510130647 13 180 0.0 0.0 0.00 0.00 0.00 99 1018.4
20260510130145 13 163 0.0 0.0 0.00 0.00 0.00 99 1018.0
20260510125641 13 176 0.0 0.0 0.00 0.00 0.00 99 1018.0
20260510125137 12 178 0.0 0.0 0.00 0.00 0.00 99 1018.2
20260510124634 12 178 0.0 0.0 0.00 0.00 0.00 99 1018.0
20260510124131 12 185 0.0 0.0 0.00 0.00 0.00 99 1018.0
20260510123627 12 187 0.0 0.0 0.00 0.00 0.00 99 1017.8
20260510123123 12 181 0.0 0.0 0.00 0.00 0.00 99 1017.8
20260510122619 12 180 0.0 0.0 0.00 0.00 0.00 99 1018.0
20260510122115 11 184 0.0 0.0 0.00 0.00 0.00 99 1017.7
20260510121612 11 180 0.0 0.0 0.00 0.00 0.00 99 1017.6
20260510121109 11 180 0.0 0.0 0.00 0.00 0.00 99 1017.4
20260510120607 11 185 0.0 0.0 0.00 0.00 0.00 99 1017.3
20260510115559 11 190 0.0 0.0 0.00 0.00 0.00 99 1017.2
20260510115056 11 185 0.0 0.0 0.00 0.00 0.00 99 1017.2
20260510114552 11 183 0.0 0.0 0.00 0.00 0.00 99 1016.8
20260510114048 11 180 0.0 0.0 0.00 0.00 0.00 99 1016.9
20260510113543 10 180 0.0 0.0 0.00 0.00 0.00 99 1016.9
20260510113041 10 182 0.0 0.0 0.00 0.00 0.00 99 1016.7
20260510112538 10 185 0.0 0.0 0.00 0.00 0.00 99 1016.7
20260510112034 10 186 0.0 0.0 0.00 0.00 0.00 99 1016.5
20260510111531 10 186 0.0 0.0 0.00 0.00 0.00 99 1016.7
20260510111027 10 184 0.0 0.0 0.00 0.00 0.00 99 1016.5
20260510110523 11 188 0.0 0.0 0.00 0.00 0.00 99 1016.4
20260510110020 11 182 0.0 0.0 0.00 0.00 0.00 99 1016.5
20260510105515 11 180 0.0 0.0 0.00 0.00 0.00 99 1016.5
20260510105010 11 187 0.0 0.0 0.00 0.00 0.00 99 1016.4
20260510104507 11 184 0.0 0.0 0.00 0.00 0.00 99 1016.5
20260510104003 11 188 0.0 0.0 0.00 0.00 0.00 99 1016.4
20260510103501 11 178 0.0 0.0 0.00 0.00 0.00 99 1016.1
20260510102956 11 179 0.0 0.0 0.00 0.00 0.00 99 1016.2
20260510102452 11 186 0.0 0.0 0.00 0.00 0.00 99 1016.1
20260510101949 10 185 0.0 0.0 0.00 0.00 0.00 99 1015.9
20260510101447 10 185 0.0 0.0 0.00 0.00 0.00 99 1015.8
20260510100945 10 185 0.0 0.0 0.00 0.00 0.00 99 1015.7
20260510100441 10 185 0.0 0.0 0.00 0.00 0.00 99 1015.7
20260510095937 10 186 0.0 0.0 0.00 0.00 0.00 99 1015.5
20260510095433 10 184 0.0 0.0 0.00 0.00 0.00 99 1015.8
20260510094932 10 182 0.0 0.0 0.00 0.00 0.00 99 1015.6
20260510094427 10 187 0.0 0.0 0.00 0.00 0.00 99 1015.6
20260510093923 10 188 0.0 0.0 0.00 0.00 0.00 99 1015.6
20260510093419 10 184 0.0 0.0 0.00 0.00 0.00 99 1015.2
20260510092915 10 184 0.0 0.0 0.00 0.00 0.00 99 1015.1
20260510092413 10 187 0.0 0.0 0.00 0.00 0.00 99 1015.2
20260510091912 10 187 0.0 0.0 0.00 0.00 0.00 99 1015.1
20260510091410 10 184 0.0 0.0 0.00 0.00 0.00 99 1015.5
20260510090907 10 182 0.0 0.0 0.00 0.00 0.00 99 1015.4
20260510090403 10 183 0.0 0.0 0.00 0.00 0.00 99 1015.3
20260510085859 10 184 0.0 0.0 0.00 0.00 0.00 99 1015.1
20260510085354 10 185 0.0 0.0 0.00 0.00 0.00 99 1015.3
20260510084850 10 185 0.0 0.0 0.00 0.00 0.00 99 1015.2
20260510084347 10 185 0.0 0.0 0.00 0.00 0.00 99 1015.1
20260510083844 10 184 0.0 0.0 0.00 0.00 0.00 99 1015.1
20260510083340 10 184 0.0 0.0 0.00 0.00 0.00 99 1015.2
20260510082836 10 182 0.0 0.0 0.00 0.00 0.00 99 1014.9
20260510082334 10 185 0.0 0.0 0.00 0.00 0.00 99 1014.9
20260510081832 11 185 0.0 0.0 0.00 0.00 0.00 99 1015.1
20260510081329 10 192 0.0 0.0 0.00 0.00 0.00 99 1015.0
20260510080824 11 185 0.0 0.0 0.00 0.00 0.00 99 1014.6
20260510080319 11 186 0.0 0.0 0.00 0.00 0.00 99 1014.9
20260510075817 10 188 0.0 0.0 0.00 0.00 0.00 99 1014.6
20260510075314 10 197 0.0 0.0 0.00 0.00 0.00 99 1014.6
20260510074811 10 185 0.0 0.0 0.00 0.00 0.00 99 1014.4
20260510074308 10 185 0.0 0.0 0.00 0.00 0.00 99 1014.5
20260510073804 11 184 0.0 0.0 0.00 0.00 0.00 99 1014.5
20260510073300 10 190 0.0 0.0 0.00 0.00 0.00 99 1014.5
20260510072756 11 186 0.0 0.0 0.00 0.00 0.00 99 1014.8
20260510072252 11 184 0.0 0.0 0.00 0.00 0.00 99 1014.5
20260510071749 11 184 0.0 0.0 0.00 0.00 0.00 99 1014.7
20260510071246 11 184 0.0 0.0 0.00 0.00 0.00 99 1014.9
20260510070744 11 185 0.0 0.0 0.00 0.00 0.00 99 1015.1
20260510070241 11 187 0.0 0.0 0.00 0.00 0.00 99 1014.9
20260510065741 11 189 0.0 0.0 0.00 0.00 0.00 99 1015.0
20260510065238 11 184 0.0 0.0 0.00 0.00 0.00 99 1015.0
20260510064734 11 189 0.0 0.0 0.00 0.00 0.00 99 1015.0
20260510064232 11 197 0.0 0.0 0.00 0.00 0.00 99 1014.8
20260510063728 11 174 0.0 0.0 0.00 0.00 0.00 99 1015.1
20260510063225 11 184 0.0 0.0 0.00 0.00 0.00 99 1015.3
20260510062721 11 181 0.0 0.0 0.00 0.00 0.00 99 1015.0
20260510062217 12 180 0.0 0.0 0.00 0.00 0.00 99 1015.0
20260510061713 12 178 0.0 0.0 0.00 0.00 0.00 99 1014.9
20260510061210 12 189 0.0 0.0 0.00 0.00 0.00 99 1015.0
20260510060706 12 180 0.0 0.0 0.00 0.00 0.00 99 1014.8
20260510060203 11 187 0.0 0.0 0.00 0.00 0.00 99 1014.9
20260510055659 11 189 0.0 0.0 0.00 0.00 0.00 99 1014.6
20260510055157 11 186 0.0 0.0 0.00 0.00 0.00 99 1014.6
20260510054653 11 189 0.0 0.0 0.00 0.00 0.00 99 1014.5
20260510054149 11 169 0.0 0.0 0.00 0.00 0.00 99 1014.4
20260510053648 11 185 0.0 0.0 0.00 0.00 0.00 99 1014.4
20260510053145 11 184 0.0 0.0 0.00 0.00 0.00 99 1014.4
20260510052641 11 187 0.0 0.0 0.00 0.00 0.00 99 1014.1
20260510052137 11 184 0.0 0.0 0.00 0.00 0.00 99 1014.3
20260510051633 11 185 0.0 0.0 0.00 0.00 0.00 99 1014.4
20260510051130 11 182 0.0 0.0 0.00 0.00 0.00 99 1014.1
20260510050627 11 185 0.0 0.0 0.00 0.00 0.00 99 1014.0
20260510050124 11 180 0.0 0.0 0.00 0.00 0.00 99 1014.0
20260510045621 11 183 0.0 0.0 0.00 0.00 0.00 99 1013.9
20260510045117 11 185 0.0 0.0 0.00 0.00 0.00 99 1013.9
20260510044613 11 186 0.0 0.0 0.00 0.00 0.00 99 1013.8
20260510044111 11 184 0.0 0.0 0.00 0.00 0.00 99 1013.8
20260510043606 11 184 0.0 0.0 0.00 0.00 0.00 99 1014.0
20260510043103 11 184 0.0 0.0 0.00 0.00 0.00 99 1013.8
20260510042601 11 189 0.0 0.0 0.00 0.00 0.00 99 1014.0
20260510042057 11 184 0.0 0.0 0.00 0.00 0.00 99 1013.7
20260510041554 11 184 0.0 0.0 0.00 0.00 0.00 99 1013.6
20260510041051 11 184 0.0 0.0 0.00 0.00 0.00 99 1013.9
20260510040548 11 184 0.0 0.0 0.00 0.00 0.00 99 1013.8
20260510040044 11 184 0.0 0.0 0.00 0.00 0.00 99 1013.7
20260510035540 11 188 0.0 0.0 0.00 0.00 0.00 99 1013.8
20260510035040 11 184 0.0 0.0 0.00 0.00 0.00 99 1013.5
20260510034539 12 189 0.0 0.0 0.00 0.00 0.00 99 1013.8
20260510034035 12 189 0.0 0.0 0.00 0.00 0.00 99 1013.6
20260510033531 12 172 0.0 0.0 0.00 0.00 0.00 99 1013.8
20260510033029 12 184 0.0 0.0 0.00 0.00 0.00 99 1013.5
20260510032524 12 184 0.0 0.0 0.00 0.00 0.00 99 1013.5
20260510032020 12 184 0.0 0.0 0.00 0.00 0.00 99 1013.3
20260510031510 12 185 0.0 0.0 0.00 0.00 0.00 99 1013.3
20260510031006 12 185 0.0 0.0 0.00 0.00 0.00 99 1013.2
20260510030502 12 184 0.0 0.0 0.00 0.00 0.00 99 1013.0
20260510025959 12 184 0.0 0.0 0.00 0.00 0.00 99 1013.2
20260510025456 12 183 0.0 0.0 0.00 0.00 0.00 99 1013.0
20260510024954 12 188 0.0 0.0 0.00 0.00 0.00 99 1013.4
20260510024450 12 185 0.0 0.0 0.00 0.00 0.00 99 1013.2
20260510023946 13 183 0.0 0.0 0.00 0.00 0.00 98 1012.7
20260510023442 13 182 0.0 0.0 0.00 0.00 0.00 98 1012.7
20260510022939 13 186 0.0 0.0 0.00 0.00 0.00 98 1012.6
20260510022439 13 182 0.0 0.0 0.00 0.00 0.00 97 1012.6
20260510021938 13 183 0.0 0.0 0.00 0.00 0.00 97 1012.4
20260510021436 13 185 0.0 0.0 0.00 0.00 0.00 97 1012.4
20260510020933 13 183 0.0 0.0 0.00 0.00 0.00 96 1012.6
20260510020427 13 183 0.0 0.0 0.00 0.00 0.00 96 1012.3
20260510015923 13 183 0.0 0.0 0.00 0.00 0.00 96 1012.4
20260510015419 14 183 0.0 0.0 0.00 0.00 0.00 95 1011.9
20260510014914 14 183 0.0 0.0 0.00 0.00 0.00 94 1012.2
20260510014412 15 183 0.0 0.0 0.00 0.00 0.00 93 1012.0
20260510013908 15 186 0.0 0.0 0.00 0.00 0.00 93 1012.0
20260510013403 15 183 0.0 0.0 0.00 0.00 0.00 94 1012.0
20260510012858 15 187 0.0 0.0 0.00 0.00 0.00 93 1011.8
20260510012354 15 183 0.0 0.0 0.00 0.00 0.00 92 1011.8
20260510011848 15 183 0.0 0.0 0.00 0.00 0.00 92 1011.8
20260510011344 16 183 0.0 0.0 0.00 0.00 0.00 91 1011.7
20260510010840 16 184 0.0 0.0 0.00 0.00 0.00 90 1011.6
20260510010338 16 183 0.0 0.0 0.00 0.00 0.00 89 1011.5
20260510005834 17 183 0.0 0.0 0.00 0.00 0.00 87 1011.4
20260510005331 17 184 0.0 0.0 0.00 0.00 0.00 85 1011.5
20260510004829 17 184 0.0 0.0 0.00 0.00 0.00 84 1011.4
20260510004326 18 184 0.0 0.0 0.00 0.00 0.00 82 1011.2
20260510003823 18 184 0.0 0.0 0.00 0.00 0.00 80 1011.2
20260510003320 18 184 0.0 0.0 0.00 0.00 0.00 79 1011.1
20260510002819 19 187 0.0 0.0 0.00 0.00 0.00 77 1011.2
20260510002316 20 187 0.0 0.0 0.00 0.00 0.00 74 1011.0
20260510001813 20 188 0.0 0.0 0.00 0.00 0.00 72 1011.1
20260510001311 21 188 0.0 0.0 0.00 0.00 0.00 68 1010.9
20260510000806 21 188 0.0 0.0 0.00 0.00 0.00 67 1010.9
20260510000305 21 188 0.0 0.0 0.00 0.00 0.00 65 1010.9
20260509235802 22 188 0.0 0.0 0.00 0.00 0.00 65 1010.8
20260509235258 23 188 0.0 0.0 0.00 0.00 0.00 63 1010.8
20260509234754 23 189 0.0 0.0 0.00 0.00 0.00 61 1011.0
20260509234250 25 189 0.0 0.0 0.00 0.00 0.00 56 1010.9
20260509233749 27 194 0.0 0.0 0.00 0.00 0.00 53 1010.7
20260509233246 26 196 0.0 0.0 0.00 0.00 0.00 53 1011.0
20260509232742 25 188 0.0 0.0 0.00 0.00 0.00 56 1010.9
20260509232239 25 194 0.0 0.0 0.00 0.00 0.00 56 1011.0
20260509231735 25 189 0.0 0.0 0.00 0.00 0.00 58 1010.9
20260509231233 26 189 0.0 0.0 0.00 0.00 0.00 54 1010.9
20260509230730 26 198 1.6 1.6 0.00 0.00 0.00 54 1010.9
20260509230227 27 184 0.0 0.0 0.00 0.00 0.00 44 1010.9
20260509225722 26 181 0.0 0.0 0.00 0.00 0.00 47 1010.8
20260509225218 26 181 1.6 3.2 0.00 0.00 0.00 39 1011.0
20260509224714 27 181 0.0 0.0 0.00 0.00 0.00 36 1010.9
20260509224211 26 181 0.0 0.0 0.00 0.00 0.00 40 1010.8
20260509223708 27 187 1.6 1.6 0.00 0.00 0.00 44 1010.6
20260509223205 27 187 0.0 0.0 0.00 0.00 0.00 38 1010.7
20260509222702 27 202 1.6 1.6 0.00 0.00 0.00 36 1010.8
20260509222158 27 260 3.2 3.2 0.00 0.00 0.00 36 1010.8
20260509221653 27 185 0.0 0.0 0.00 0.00 0.00 45 1010.7
20260509221149 27 285 1.6 3.2 0.00 0.00 0.00 45 1010.7
20260509220646 27 221 0.0 0.0 0.00 0.00 0.00 42 1010.6
20260509220142 27 195 0.0 1.6 0.00 0.00 0.00 40 1010.5
20260509215638 27 194 0.0 0.0 0.00 0.00 0.00 43 1010.7
20260509215135 27 200 1.6 1.6 0.00 0.00 0.00 38 1010.6
20260509214632 27 95 0.0 0.0 0.00 0.00 0.00 38 1010.4
20260509214128 27 213 3.2 3.2 0.00 0.00 0.00 36 1010.5
20260509213625 27 195 0.0 0.0 0.00 0.00 0.00 39 1010.5
20260509213121 27 200 1.6 1.6 0.00 0.00 0.00 41 1010.7
20260509212619 27 223 0.0 0.0 0.00 0.00 0.00 43 1010.8
20260509212116 28 146 1.6 1.6 0.00 0.00 0.00 37 1010.7
20260509211612 28 177 0.0 0.0 0.00 0.00 0.00 36 1010.8
20260509211108 28 190 1.6 1.6 0.00 0.00 0.00 40 1010.9
20260509210605 29 109 1.6 1.6 0.00 0.00 0.00 34 1011.0
20260509205556 30 187 0.0 0.0 0.00 0.00 0.00 37 1010.9
20260509205051 29 192 0.0 0.0 0.00 0.00 0.00 38 1011.0
20260509204548 28 177 0.0 0.0 0.00 0.00 0.00 34 1011.1
20260509204045 30 27 1.6 3.2 0.00 0.00 0.00 35 1011.0
20260509203540 30 224 3.2 4.8 0.00 0.00 0.00 37 1011.1
20260509203039 29 332 3.2 3.2 0.00 0.00 0.00 34 1011.2
20260509202533 29 307 1.6 1.6 0.00 0.00 0.00 37 1011.2
20260509202029 29 248 3.2 3.2 0.00 0.00 0.00 39 1011.1
20260509201524 30 197 0.0 1.6 0.00 0.00 0.00 34 1011.2
20260509201022 30 190 0.0 1.6 0.00 0.00 0.00 39 1011.3
20260509200521 29 281 1.6 1.6 0.00 0.00 0.00 39 1011.6
20260509200018 29 196 0.0 1.6 0.00 0.00 0.00 37 1011.5
20260509195513 29 200 3.2 3.2 0.00 0.00 0.00 42 1011.5
20260509195008 28 187 1.6 3.2 0.00 0.00 0.00 41 1011.6
20260509194503 29 8 3.2 3.2 0.00 0.00 0.00 45 1011.4
20260509194001 29 126 0.0 1.6 0.00 0.00 0.00 40 1011.4
20260509193501 30 212 0.0 0.0 0.00 0.00 0.00 38 1011.5
20260509192957 30 181 1.6 1.6 0.00 0.00 0.00 40 1011.4
20260509192454 30 214 1.6 1.6 0.00 0.00 0.00 41 1011.5
20260509191949 30 191 1.6 1.6 0.00 0.00 0.00 42 1011.4
20260509191444 29 194 1.6 1.6 0.00 0.00 0.00 42 1011.6